Regional Weather Roundup
Issued by NWS Portland, ME

Home | Current Version | Previous Version | Text Only | Print | Product List | Glossary On
Versions: 1 2 3 4 5 6 7 8 9 10 11 12 13 14 15 16 17 18 19 20 21 22 23 24 25 26 27 28 29 30 31 32 33 34 35 36 37 38 39 40 41 42 43 44 45 46 47 48 49 50
000
ASUS41 KGYX 221510
RWRGYX
WEATHER ROUNDUP FOR MAINE AND NEW HAMPSHIRE
NATIONAL WEATHER SERVICE GRAY ME
1100 AM EDT TUE JUL 22 2014

MEZ002-005-006-010-012-015-018-020-021-024-026-027-029-221600-
MAINE

CITY           SKY/WX    TMP DP  RH WIND       PRES   REMARKS
PORTLAND       MOSUNNY   80  64  58 CALM      30.12R
SANFORD        SUNNY     84  64  51 SW5       30.12R
BAR HARBOR     SUNNY     72  64  78 S10       30.12S
WISCASSET      SUNNY     77  64  64 SE3       30.13S
ROCKLAND       SUNNY     75  63  64 SW9       30.10F
FRYEBURG       SUNNY     83  67  58 VRB3      30.12S
LEWISTONAUBURN SUNNY     79  66  65 CALM      30.12S
AUGUSTA        SUNNY     78  65  63 SE7       30.11F
WATERVILLE     SUNNY     77  66  69 S5        30.06F
BANGOR         MOSUNNY   78  63  59 VRB6      30.09F
GREENVILLE       N/A     77  63  61 NW5       30.10F
MILLINOCKET    SUNNY     81  63  54 VRB6      30.07F
HOULTON        SUNNY     81  61  50 SW8       30.03F
PRESQUE ISLE   PTSUNNY   81  61  50 SW9       30.04F
FRENCHVILLE    MOSUNNY   77  62  59 W12       30.02F
CARIBOU        MOSUNNY   80  65  59 SW8       30.02F
$$

NHZ002-005-008-009-011-012-014-221600-
NEW HAMPSHIRE

CITY           SKY/WX    TMP DP  RH WIND       PRES   REMARKS
PORTSMOUTH     MOSUNNY   80  66  61 VRB3      30.11S
ROCHESTER      SUNNY     82  66  58 CALM      30.12R
NASHUA         MOSUNNY   82  65  56 NW5       30.12F
MANCHESTER     MOSUNNY   82  65  56 W6        30.10F
CONCORD        SUNNY     81  65  58 CALM      30.12S
LACONIA        MOSUNNY   79  64  61 SW3       30.12S
PLYMOUTH       FAIR      80  65  59 W5        30.12S
BERLIN         SUNNY     82  63  52 VRB3      30.13F
WHITEFIELD     MOSUNNY   80  64  58 VRB5      30.14F
JAFFREY        SUNNY     80  63  55 VRB6      30.16S
LEBANON        SUNNY     83  66  56 CALM      30.13R
MT WASHINGTON  FOG       54  54 100 W26G36      N/A  VSB 1/16
$$

VTZ005-007-008-221600-
VERMONT

CITY           SKY/WX    TMP DP  RH WIND       PRES   REMARKS
ST JOHNSBURY     N/A     79  64  60 MISG      30.10F
MONTPELIER     MOSUNNY   80  65  59 VRB3      30.17F
BURLINGTON     MOSUNNY   83  65  54 SW8       30.09F
$$

MAZ007-012-024-CTZ003-RIZ002-NYZ038-NYZ072-221600-
SOUTHERN NEW ENGLAND AND NY

CITY           SKY/WX    TMP DP  RH WIND       PRES   REMARKS
BOSTON         MOSUNNY   78  66  66 SE7       30.11F
WORCESTER      SUNNY     80  65  59 W8        30.16S
NANTUCKET      SUNNY     71  64  78 SW8       30.15S
PROVIDENCE     SUNNY     81  68  64 SW5       30.13S
HARTFORD       MOSUNNY   82  66  58 VRB3      30.12F
ALBANY         MOSUNNY   81  67  62 CALM      30.13S
NEW YORK CITY  MOSUNNY   83  65  54 SW6       30.14F
$$

ANZ081-ANZ082-ANZ150-NHZ014-MEZ023>029-221600-
COASTAL MARINE OBSERVATIONS

STATION/POSITION TIME  TEMP    WIND        PRES    WAVE
                       AIR SEA DIR/SP/G            HT/PER
                 (UTC) (F)     (DEG/KT/KT) (MB)    (FT/S)
MOUNT DESERT ROC 1500   59                 1020.6R
MATINICUS ROCK   1400          210/ 11/ 12 1019.6R
PORTLAND WX BUOY 1500   65 64  190/  6/  6 1019.9R   2/ 7
WELLS            1500   69 60  150/  4/  5 1019.0S
ISLE OF SHOALS   1400   64     190/  7/  7 1019.5F
JEFFREYS LEDGE   1400      67                N/A     2/ 8
CASHES LEDGE BUO 1500   66 65  VRB  8/  8  1019.8R   2/ 7
$$

.............KEY..............
   WCI - WIND CHILL
   TC  - TEMPERATURE IN CELSIUS
   VSB - VISIBILITY IN MILES
   HX  - HEAT INDEX
   FAIR- INDICATES FEW OR NO CLOUDS BELOW 12,000 FT, WITH NO
         SIGNIFICANT WEATHER AND/OR OBSTRUCTIONS TO VISIBILITY.




USA.gov is the U.S. government's official web portal to all federal, state and local government web resources and services.